Weather History for Asheville, NC

Change the Weather History Date:

Thursday, November 7, 2013

  Actual Average Record
Temperature  
Mean Temperature 50 °F 50 °F  
Max Temperature 59 °F 62 °F 76 °F (1890)
Min Temperature 40 °F 38 °F 20 °F (1894)
Degree Days  
Heating Degree Days 15 15  
Month to date heating degree days 100 100  
Since 1 July heating degree days 351 435  
Cooling Degree Days 0 0  
Month to date cooling degree days 0 0  
Year to date cooling degree days 860 862  
Moisture  
Dew Point 44 °F    
Average Humidity 77    
Maximum Humidity 100    
Minimum Humidity 54    
Precipitation  
Precipitation 0.01 in 0.11 in 1.44 in (2006)
Month to date precipitation 0.14 0.75  
Year to date precipitation 64.14 39.08  
Snow  
Snow 0.00 in 0.00 in 0.00 in ()
Month to date snowfall 0.0 0.0  
Since 1 July snowfall T 0.0  
Since 1 September snowfall T 0.0  
Snow Depth 0.00 in    
Sea Level Pressure  
Sea Level Pressure 30.09 in    
Wind  
Wind Speed 9 mph (North)    
Max Wind Speed 25 mph    
Max Gust Speed 36 mph    
Visibility 10 miles    
Events Rain    
T = Trace of Precipitation, MM = Missing Value Source: NWS Daily Summary

Daily Weather History Graph

Daily Weather History Graph

Search for Another Location

Airport:

Trip Planner

Search our weather history database for the weather conditions in past years. The results will help you decide how hot, cold, wet, or windy it might be!

Date:

Astronomy

Nov. 07, 2013 Rise Set
Actual Time 6:57 AM EST 5:29 PM EST
Civil Twilight 6:31 AM EST 5:56 PM EST
Nautical Twilight 6:00 AM EST 6:26 PM EST
Astronomical Twilight 5:30 AM EST 6:56 PM EST
Moon 11:03 AM EST (11/7) 9:41 PM EST (11/7)
Length of Visible Light 11h 24m
Length of Day
10h 31m
Waxing Crescent, 22% of the Moon is Illuminated
Nov 7
Waxing Crescent
Nov 10
First Quarter
Nov 17
Full
Nov 25
Last Quarter
Dec 2
New

Hourly Weather History & Observations

Time (EST) Temp. Windchill Dew Point Humidity Pressure Visibility Wind Dir Wind Speed Gust Speed Precip Events Conditions
12:21 AM 53.6 °F - 50.0 °F 88% 30.16 in 10.0 mi Calm Calm - N/A   Scattered Clouds
12:54 AM 53.1 °F - 50.0 °F 89% 30.12 in 10.0 mi Calm Calm - N/A   Mostly Cloudy
1:41 AM 51.8 °F - 50.0 °F 94% 30.13 in 10.0 mi Calm Calm - N/A   Mostly Cloudy
1:54 AM 52.0 °F - 50.0 °F 93% 30.09 in 10.0 mi Calm Calm - N/A   Mostly Cloudy
2:19 AM 50.0 °F - 48.2 °F 94% 30.11 in 10.0 mi Calm Calm - N/A   Scattered Clouds
2:54 AM 50.0 °F - 48.9 °F 96% 30.05 in 10.0 mi SE 3.5 mph - N/A   Clear
3:54 AM 48.9 °F - 48.0 °F 97% 30.03 in 9.0 mi Calm Calm - N/A   Partly Cloudy
4:54 AM 48.0 °F - 46.9 °F 96% 30.03 in 10.0 mi Calm Calm - N/A   Mostly Cloudy
5:54 AM 51.1 °F - 48.9 °F 92% 30.03 in 10.0 mi NNW 3.5 mph - N/A   Overcast
6:54 AM 52.0 °F - 50.0 °F 93% 30.03 in 9.0 mi North 4.6 mph - 0.00 in Rain Light Rain
7:54 AM 53.1 °F - 52.0 °F 96% 30.04 in 8.0 mi North 3.5 mph - 0.01 in Rain Light Rain
8:39 AM 53.6 °F - 51.8 °F 94% 30.05 in 10.0 mi Calm Calm - 0.00 in   Overcast
8:50 AM 53.6 °F - 51.8 °F 94% 30.06 in 6.0 mi Calm Calm - 0.00 in   Overcast
8:54 AM 54.0 °F - 52.0 °F 93% 30.02 in 6.0 mi Calm Calm - 0.00 in   Overcast
9:32 AM 55.4 °F - 53.6 °F 94% 30.05 in 10.0 mi NNW 6.9 mph - N/A   Overcast
9:54 AM 55.9 °F - 53.1 °F 90% 30.03 in 10.0 mi North 5.8 mph - N/A   Mostly Cloudy
10:10 AM 55.4 °F - 53.6 °F 94% 30.08 in 10.0 mi North 9.2 mph - N/A   Overcast
10:54 AM 57.0 °F - 51.1 °F 81% 30.04 in 10.0 mi North 13.8 mph 18.4 mph 0.00 in   Overcast
11:54 AM 57.0 °F - 46.9 °F 69% 30.05 in 10.0 mi North 18.4 mph 28.8 mph N/A   Mostly Cloudy
12:01 PM 57.2 °F - 46.4 °F 67% 30.09 in 10.0 mi NNW 19.6 mph 28.8 mph N/A   Mostly Cloudy
12:11 PM 57.2 °F - 46.4 °F 67% 30.08 in 10.0 mi North 15.0 mph 26.5 mph N/A   Scattered Clouds
12:54 PM 55.9 °F - 44.1 °F 64% 30.05 in 10.0 mi North 18.4 mph 28.8 mph N/A   Partly Cloudy
1:54 PM 54.0 °F - 37.0 °F 53% 30.06 in 10.0 mi North 20.7 mph 31.1 mph N/A   Clear
2:54 PM 51.1 °F - 37.0 °F 59% 30.08 in 10.0 mi North 16.1 mph 21.9 mph N/A   Clear
3:54 PM 48.9 °F - 34.0 °F 56% 30.10 in 10.0 mi North 16.1 mph 24.2 mph N/A   Clear
4:54 PM 48.9 °F - 33.1 °F 54% 30.11 in 10.0 mi North 15.0 mph 25.3 mph N/A   Clear
5:54 PM 46.0 °F 39.6 °F 32.0 °F 58% 30.12 in 10.0 mi NNW 15.0 mph - N/A   Clear
6:54 PM 45.0 °F 38.9 °F 32.0 °F 60% 30.14 in 10.0 mi North 12.7 mph 20.7 mph N/A   Clear
7:54 PM 43.0 °F 38.2 °F 30.9 °F 62% 30.14 in 10.0 mi North 8.1 mph - N/A   Clear
8:54 PM 43.0 °F 38.2 °F 32.0 °F 65% 30.14 in 10.0 mi North 8.1 mph - N/A   Clear
9:54 PM 42.1 °F 36.6 °F 32.0 °F 67% 30.14 in 10.0 mi North 9.2 mph - N/A   Clear
10:54 PM 42.1 °F 34.5 °F 30.0 °F 62% 30.16 in 10.0 mi NNW 15.0 mph 24.2 mph N/A   Clear
11:54 PM 39.9 °F 32.5 °F 28.9 °F 65% 30.17 in 10.0 mi North 12.7 mph 20.7 mph N/A   Clear